Regional Weather Roundup
Issued by NWS

Home | Current Version | Previous Version | Text Only | Print | Product List | Glossary Off
Versions: 1 2 3 4 5 6 7 8 9 10 11 12 13 14 15 16 17 18 19 20 21 22 23 24 25 26 27 28 29 30 31 32 33 34 35 36 37 38 39 40 41 42 43 44 45 46 47 48 49 50

000
ASUS43 KDTX 241510
RWRMI
MICHIGAN HOURLY REGIONAL WEATHER ROUNDUP
NATIONAL WEATHER SERVICE DETROIT/PONTIAC MI
1000 AM EST WED DEC 24 2014

NOTE: "FAIR" INDICATES FEW OR NO CLOUDS BELOW 12,000 FEET WITH NO
SIGNIFICANT WEATHER AND/OR OBSTRUCTION TO VISIBILITY.

MIZ047>049-052>055-059>063-066>070-074>076-081>083-241600-
SOUTHEAST LOWER MICHIGAN

CITY           SKY/WX    TMP DP  RH WIND       PRES   REMARKS
ADRIAN         LGT RAIN  46  45  96 NE8       29.53F FOG
ALMA           LGT RAIN  38  38 100 N8        29.59F
ANN ARBOR      CLOUDY    46  45  96 NE5       29.53F FOG
BAD AXE        LGT RAIN  41  41 100 N7        29.60F
DETROIT CITY   LGT RAIN  47  44  90 N3        29.55F VSB<1/4
DETROIT        DRZL/FOG  46  46 100 N8        29.54F VSB 1/8
FLINT          CLOUDY    43  40  89 NE13      29.56F FOG
GROSSE ILE     RAIN      45  43  93 CALM      29.53S VSB<1/4
HILLSDALE      DRIZZLE   42  42 100 NE8       29.51F
HOWELL         CLOUDY    40  40 100 NE6       29.53F FOG

CITY           SKY/WX    TMP DP  RH WIND       PRES   REMARKS
JACKSON        LGT RAIN  41  40  96 NE7       29.54S FOG
LAMBERTVILLE   LGT RAIN  46  45  93 CALM      29.53F VSB 1/2
LANSING        LGT RAIN  40  38  93 N13G20    29.57F FOG
LAPEER         NOT AVBL
MASON          RAIN      39  38  94 NE7       29.55S
MONROE         FOG       46  46 100 CALM      29.52F VSB<1/4
MT. CLEMENS    DRZL/FOG  46  46 100 CALM      29.52F VSB 1/8
PONTIAC        CLOUDY    43  42  97 NE6       29.53F FOG
PORT HOPE        N/A     39  37  92 VRB3      29.59F
PORT HURON     DRZL/FOG  43  43 100 NE3       29.56F VSB 1
TRI CITIES     CLOUDY    40  37  89 N12       29.60F FOG
YPSILANTI      LGT RAIN  49  44  83 NE9       29.54F VSB 3/4
$$
MIZ043>046-050>051-056>058-064>065-071>073-077>080-241600-
SOUTHWEST LOWER MICHIGAN

CITY           SKY/WX    TMP DP  RH WIND       PRES   REMARKS
BATTLE CREEK   LGT RAIN  41  38  89 N8        29.57R
BENTON HARBOR  RAIN      39  38  96 CALM      29.63R FOG
BIG RAPIDS     MIX PCPN  35  35 100 CALM      29.59F
COLDWATER      LGT RAIN  40  40  97 N8        29.54S
HOLLAND        LGT RAIN  41  38  89 CALM      29.61S FOG
GRAND RAPIDS   RAIN      38  36  92 N9        29.58F FOG
KALAMAZOO      RAIN      40  38  93 N8        29.58S FOG
MARSHALL       RAIN      39  38  97 N5        29.55R
MUSKEGON       LGT RAIN  40  37  89 SE5       29.62S FOG
$$
MIZ016>042-241600-
NORTHERN LOWER MICHIGAN

CITY           SKY/WX    TMP DP  RH WIND       PRES   REMARKS
ALPENA         LGT RAIN  36  36 100 CALM      29.65F FOG
BEAVER ISLAND  FOG       34  34  99 CALM      29.64F VSB 1
BELLAIRE       CLOUDY    34  33  96 CALM      29.64S FOG
CADILLAC       CLOUDY    34  33  97 E6        29.59F FOG
CHARLEVOIX     CLOUDY    35  35 100 CALM      29.67S FOG
FRANKFORT      CLOUDY    34  34  99 CALM      29.62R FOG
GAYLORD        LGT RAIN  34  34 100 SE3       29.62F FOG
GRAYLING       CLOUDY    34  34 100 CALM      29.63F FOG
HARBOR SPRINGS CLOUDY    33  33  99 SE5       29.64S FOG
HOUGHTON LAKE  LGT RAIN  35  33  92 NE6       29.61F FOG
MANISTEE       CLOUDY    36  34  93 CALM      29.62S
OSCODA         CLOUDY    38  38 100 N5        29.63S FOG
PELLSTON       CLOUDY    33  33 100 CALM      29.65F FOG
TRAVERSE CITY  CLOUDY    38  36  92 NE3       29.61F FOG
$$
MIZ007>008-015-241600-
EASTERN UPPER MICHIGAN

CITY           SKY/WX    TMP DP  RH WIND       PRES   REMARKS
KINROSS        CLOUDY    36  36 100 SE8       29.65F
MACKINAC ISLAN FOG       35  35 100 E5        29.65S VSB<1/4
NEWBERRY       FOG       33  33 100 CALM      29.64F VSB<1/4
S. S. MARIE    FOG       35  34  96 E3        29.66S VSB 1/4
$$
MIZ004>006-011>014-085-241600-
CENTRAL UPPER MICHIGAN

CITY           SKY/WX    TMP DP  RH WIND       PRES   REMARKS
MANISTIQUE     FOG       34  34 100 CALM      29.64F VSB 3/4
ESCANABA       CLOUDY    34  32  93 NW5       29.64F
MENOMINEE      CLOUDY    34  32  93 N5        29.64S
SAWYER-GWINN   FOG       32  32 100 N8        29.65S VSB 1/2
$$
MIZ001>003-009>011-084-241600-
WESTERN UPPER MICHIGAN

CITY           SKY/WX    TMP DP  RH WIND       PRES   REMARKS
IRON MOUNTAIN  CLOUDY    32  32 100 NW5       29.64F
HOUGHTON       CLOUDY    31  28  89 NE6       29.69R
COPPER HARBOR    N/A     33  28  81 E12       29.71R
IRONWOOD       CLOUDY    30  30 100 NE3       29.68S
$$

ABBREVIATIONS USED IN REMARKS
   TC - TEMPERATURE IN CELSIUS
  WCI - WIND CHILL INDEX
   HX - HEAT INDEX
  VSB - VISIBILITY




USA.gov is the U.S. government's official web portal to all federal, state and local government web resources and services.